SPRTW EGKB-EGKA

Flight info

Callsign SPRTW
Flight time 1h 3m
Altitude 1500
Route DORKING DCT EGKK DCT HAYWARDS DCT
Aircraft C172/L-VW/C

Departure

Time 2026-05-04 17:51
Airport London Biggin Hill Airport (EGKB)

Arrival

Time 2026-05-04 18:55
Airport Brighton City Airport (EGKA)
Time Latitude Longitude Altitude Speed Heading
2026-05-04 17:43 51.33334 0.03071 548 ft 0 kts 294°
2026-05-04 17:48 51.33345 0.03058 548 ft 7 kts 359°
2026-05-04 17:48 51.33340 0.03136 547 ft 12 kts 109°
2026-05-04 17:48 51.33380 0.03222 545 ft 6 kts 69°
2026-05-04 17:49 51.33382 0.03323 543 ft 12 kts 105°
2026-05-04 17:49 51.33341 0.03437 544 ft 11 kts 184°
2026-05-04 17:49 51.33319 0.03417 544 ft 0 kts 202°
2026-05-04 17:50 51.33259 0.03373 546 ft 31 kts 205°
2026-05-04 17:50 51.32921 0.03112 567 ft 73 kts 205°
2026-05-04 17:50 51.32389 0.02717 652 ft 87 kts 204°
2026-05-04 17:50 51.31854 0.02657 814 ft 77 kts 129°
2026-05-04 17:51 51.31801 0.03456 851 ft 82 kts 69°
2026-05-04 17:51 51.32208 0.03874 1075 ft 78 kts 16°
2026-05-04 17:51 51.32765 0.04176 1143 ft 97 kts 22°
2026-05-04 17:51 51.33422 0.04558 1317 ft 102 kts 21°
2026-05-04 17:52 51.34131 0.04955 1353 ft 102 kts 22°
2026-05-04 17:52 51.34801 0.04845 1360 ft 110 kts 325°
2026-05-04 17:52 51.35336 0.04031 1433 ft 109 kts 323°
2026-05-04 17:52 51.35818 0.03058 1474 ft 113 kts 303°
2026-05-04 17:53 51.35842 0.01754 1399 ft 130 kts 250°
2026-05-04 17:53 51.35336 0.00606 1590 ft 121 kts 228°
2026-05-04 17:53 51.34710 -0.00356 1607 ft 129 kts 222°
2026-05-04 17:53 51.34058 -0.01347 1701 ft 128 kts 224°
2026-05-04 17:54 51.33430 -0.02363 1755 ft 129 kts 225°
2026-05-04 17:54 51.32796 -0.03399 1809 ft 132 kts 229°
2026-05-04 17:54 51.32308 -0.04621 1905 ft 129 kts 248°
2026-05-04 17:54 51.32065 -0.06007 1926 ft 133 kts 259°
2026-05-04 17:55 51.31892 -0.07433 1979 ft 128 kts 271°
2026-05-04 17:55 51.31789 -0.08864 1882 ft 133 kts 265°
2026-05-04 17:55 51.31652 -0.10339 1807 ft 134 kts 266°
2026-05-04 17:55 51.31506 -0.11788 1846 ft 124 kts 263°
2026-05-04 17:56 51.31356 -0.13172 1758 ft 131 kts 264°
2026-05-04 17:56 51.31208 -0.14632 1697 ft 133 kts 264°
2026-05-04 17:56 51.31066 -0.16079 1685 ft 131 kts 263°
2026-05-04 17:56 51.30848 -0.17487 1683 ft 132 kts 246°
2026-05-04 17:57 51.30285 -0.18638 1643 ft 132 kts 231°
2026-05-04 17:57 51.29637 -0.19701 1532 ft 134 kts 220°
2026-05-04 17:57 51.28961 -0.20705 1536 ft 131 kts 226°
2026-05-04 17:57 51.28272 -0.21672 1494 ft 133 kts 222°
2026-05-04 17:58 51.27625 -0.22702 1469 ft 133 kts 229°
2026-05-04 17:58 51.27008 -0.23802 1479 ft 131 kts 229°
2026-05-04 17:58 51.26569 -0.24492 1444 ft 133 kts 219°
2026-05-04 17:58 51.25767 -0.25248 1356 ft 134 kts 210°
2026-05-04 17:59 51.25231 -0.26309 1427 ft 123 kts 262°
2026-05-04 17:59 51.25025 -0.27654 1401 ft 126 kts 251°
2026-05-04 17:59 51.24363 -0.30352 1154 ft 130 kts 250°
2026-05-04 18:00 51.24037 -0.31698 1173 ft 128 kts 254°
2026-05-04 18:00 51.23812 -0.33066 1160 ft 131 kts 258°
2026-05-04 18:00 51.23510 -0.34373 1319 ft 121 kts 249°
2026-05-04 18:00 51.23148 -0.35668 1202 ft 135 kts 246°
2026-05-04 18:01 51.22754 -0.37020 1207 ft 129 kts 263°
2026-05-04 18:01 51.23006 -0.38220 1344 ft 113 kts 325°
2026-05-04 18:01 51.23720 -0.38499 1351 ft 109 kts 20°
2026-05-04 18:02 51.24194 -0.36392 1344 ft 116 kts 83°
2026-05-04 18:02 51.24291 -0.35194 1483 ft 107 kts 79°
2026-05-04 18:02 51.24403 -0.33983 1399 ft 116 kts 80°
2026-05-04 18:02 51.24493 -0.32723 1464 ft 111 kts 83°
2026-05-04 18:03 51.24357 -0.31537 1486 ft 119 kts 134°
2026-05-04 18:03 51.23565 -0.31497 1518 ft 126 kts 215°
2026-05-04 18:03 51.23268 -0.32753 1506 ft 125 kts 280°
2026-05-04 18:03 51.23386 -0.34122 1483 ft 128 kts 285°
2026-05-04 18:04 51.23536 -0.35547 1423 ft 131 kts 283°
2026-05-04 18:04 51.23847 -0.36800 1492 ft 116 kts 330°
2026-05-04 18:04 51.24703 -0.35462 1497 ft 114 kts 82°
2026-05-04 18:05 51.24783 -0.34200 1449 ft 118 kts 82°
2026-05-04 18:05 51.24855 -0.32903 1461 ft 117 kts 83°
2026-05-04 18:05 51.24930 -0.31616 1471 ft 116 kts 83°
2026-05-04 18:05 51.24893 -0.30360 1436 ft 121 kts 118°
2026-05-04 18:06 51.23606 -0.31056 1373 ft 130 kts 264°
2026-05-04 18:06 51.23495 -0.32468 1404 ft 128 kts 268°
2026-05-04 18:06 51.23428 -0.33874 1420 ft 127 kts 269°
2026-05-04 18:07 51.23344 -0.35294 1410 ft 129 kts 268°
2026-05-04 18:07 51.23248 -0.36708 1464 ft 126 kts 268°
2026-05-04 18:07 51.23151 -0.38113 1440 ft 129 kts 266°
2026-05-04 18:07 51.23031 -0.39537 1467 ft 129 kts 265°
2026-05-04 18:08 51.22957 -0.40924 1504 ft 121 kts 289°
2026-05-04 18:08 51.23540 -0.41637 1531 ft 109 kts
2026-05-04 18:08 51.24001 -0.40826 1551 ft 111 kts 86°
2026-05-04 18:08 51.23948 -0.39594 1554 ft 113 kts 91°
2026-05-04 18:09 51.23778 -0.37156 1501 ft 113 kts 75°
2026-05-04 18:09 51.24217 -0.34781 1517 ft 111 kts 73°
2026-05-04 18:10 51.24423 -0.33577 1510 ft 112 kts 72°
2026-05-04 18:10 51.24660 -0.32481 1698 ft 101 kts 65°
2026-05-04 18:10 51.24958 -0.31395 1655 ft 111 kts 66°
2026-05-04 18:10 51.25262 -0.30293 1751 ft 104 kts 64°
2026-05-04 18:11 51.25585 -0.29305 1886 ft 97 kts 58°
2026-05-04 18:11 51.25932 -0.28357 1904 ft 101 kts 58°
2026-05-04 18:11 51.26289 -0.27394 1965 ft 101 kts 71°
2026-05-04 18:11 51.26000 -0.26402 1999 ft 115 kts 152°
2026-05-04 18:12 51.25218 -0.26686 1965 ft 127 kts 234°
2026-05-04 18:12 51.24990 -0.28027 1925 ft 126 kts 266°
2026-05-04 18:12 51.24788 -0.29390 1865 ft 128 kts 257°
2026-05-04 18:12 51.24576 -0.30749 1863 ft 127 kts 261°
2026-05-04 18:13 51.24421 -0.32101 1914 ft 122 kts 265°
2026-05-04 18:13 51.24284 -0.33458 1918 ft 127 kts 265°
2026-05-04 18:13 51.24041 -0.36227 1971 ft 127 kts 264°
2026-05-04 18:14 51.23879 -0.37595 2037 ft 122 kts 264°
2026-05-04 18:14 51.23780 -0.38969 1955 ft 130 kts 272°
2026-05-04 18:14 51.24094 -0.40159 1966 ft 116 kts 337°
2026-05-04 18:15 51.24555 -0.38487 1884 ft 113 kts 103°
2026-05-04 18:15 51.24353 -0.36036 1846 ft 113 kts 86°
2026-05-04 18:15 51.24382 -0.34813 1877 ft 109 kts 86°
2026-05-04 18:16 51.24402 -0.33587 1873 ft 111 kts 85°
2026-05-04 18:16 51.24425 -0.32337 1897 ft 113 kts 87°
2026-05-04 18:16 51.24434 -0.31093 1953 ft 111 kts 85°
2026-05-04 18:17 51.24500 -0.28680 1945 ft 112 kts 88°
2026-05-04 18:17 51.24289 -0.27441 1841 ft 120 kts 121°
2026-05-04 18:17 51.23218 -0.28367 1777 ft 127 kts 278°
2026-05-04 18:18 51.23347 -0.29701 1882 ft 117 kts 288°
2026-05-04 18:18 51.23576 -0.31020 1747 ft 130 kts 292°
2026-05-04 18:18 51.23905 -0.32338 1719 ft 128 kts 297°
2026-05-04 18:18 51.24069 -0.33692 1807 ft 124 kts 266°
2026-05-04 18:19 51.23767 -0.36441 1746 ft 131 kts 270°
2026-05-04 18:19 51.23545 -0.37815 1826 ft 124 kts 255°
2026-05-04 18:19 51.23278 -0.39102 1902 ft 121 kts 255°
2026-05-04 18:20 51.23537 -0.40164 1971 ft 106 kts 341°
2026-05-04 18:20 51.24145 -0.39796 1938 ft 109 kts 65°
2026-05-04 18:20 51.24258 -0.38596 1896 ft 112 kts 82°
2026-05-04 18:20 51.24329 -0.37350 1866 ft 113 kts 82°
2026-05-04 18:21 51.24374 -0.36127 1937 ft 107 kts 87°
2026-05-04 18:21 51.24446 -0.34926 1910 ft 110 kts 76°
2026-05-04 18:21 51.24597 -0.33707 1927 ft 111 kts 76°
2026-05-04 18:21 51.24813 -0.32570 2007 ft 107 kts 65°
2026-05-04 18:22 51.25133 -0.31443 1927 ft 113 kts 57°
2026-05-04 18:22 51.25463 -0.30323 1913 ft 116 kts 92°
2026-05-04 18:22 51.24843 -0.29571 1874 ft 133 kts 183°
2026-05-04 18:22 51.24221 -0.30553 1868 ft 130 kts 257°
2026-05-04 18:23 51.24010 -0.31909 1892 ft 127 kts 260°
2026-05-04 18:23 51.23817 -0.33278 1928 ft 126 kts 261°
2026-05-04 18:23 51.23627 -0.34641 1946 ft 126 kts 260°
2026-05-04 18:23 51.23434 -0.36021 1924 ft 128 kts 261°
2026-05-04 18:24 51.23331 -0.37393 1957 ft 120 kts 294°
2026-05-04 18:24 51.23950 -0.37926 1967 ft 104 kts 22°
2026-05-04 18:24 51.24287 -0.36943 1884 ft 113 kts 81°
2026-05-04 18:24 51.24354 -0.35699 1915 ft 110 kts 84°
2026-05-04 18:25 51.24430 -0.34484 1884 ft 113 kts 79°
2026-05-04 18:25 51.24572 -0.33247 1879 ft 114 kts 77°
2026-05-04 18:25 51.24730 -0.32002 1889 ft 114 kts 76°
2026-05-04 18:25 51.24333 -0.31032 1882 ft 125 kts 165°
2026-05-04 18:26 51.23611 -0.31661 1937 ft 126 kts 248°
2026-05-04 18:26 51.23433 -0.33046 1905 ft 129 kts 264°
2026-05-04 18:26 51.23319 -0.34466 1889 ft 130 kts 266°
2026-05-04 18:26 51.23188 -0.35872 1869 ft 130 kts 265°
2026-05-04 18:27 51.23035 -0.37300 1838 ft 130 kts 269°
2026-05-04 18:27 51.23468 -0.38302 1834 ft 112 kts 357°
2026-05-04 18:27 51.24034 -0.37679 1807 ft 109 kts 68°
2026-05-04 18:27 51.24217 -0.36470 1744 ft 113 kts 77°
2026-05-04 18:28 51.24358 -0.35244 1747 ft 112 kts 78°
2026-05-04 18:28 51.24488 -0.34047 1775 ft 111 kts 79°
2026-05-04 18:28 51.24615 -0.32812 1801 ft 112 kts 78°
2026-05-04 18:28 51.24767 -0.31600 1824 ft 111 kts 76°
2026-05-04 18:29 51.24929 -0.30381 1783 ft 112 kts 75°
2026-05-04 18:29 51.24928 -0.29219 1875 ft 114 kts 123°
2026-05-04 18:29 51.24170 -0.28969 1886 ft 125 kts 207°
2026-05-04 18:29 51.23799 -0.30142 1909 ft 123 kts 268°
2026-05-04 18:30 51.23675 -0.32931 1873 ft 129 kts 270°
2026-05-04 18:30 51.23623 -0.34372 1827 ft 132 kts 270°
2026-05-04 18:30 51.23563 -0.35820 1793 ft 130 kts 269°
2026-05-04 18:31 51.23506 -0.37239 1823 ft 122 kts 280°
2026-05-04 18:31 51.23991 -0.38134 1773 ft 110 kts 360°
2026-05-04 18:31 51.24547 -0.37430 1642 ft 118 kts 71°
2026-05-04 18:31 51.24609 -0.36173 1719 ft 110 kts 86°
2026-05-04 18:32 51.24643 -0.34966 1762 ft 108 kts 83°
2026-05-04 18:32 51.24708 -0.33783 1857 ft 106 kts 82°
2026-05-04 18:32 51.24734 -0.32598 1896 ft 111 kts 101°
2026-05-04 18:32 51.24218 -0.31566 1749 ft 128 kts 139°
2026-05-04 18:33 51.23536 -0.30804 1583 ft 109 kts 144°
2026-05-04 18:33 51.22896 -0.30125 1423 ft 114 kts 141°
2026-05-04 18:33 51.22247 -0.29385 1460 ft 112 kts 141°
2026-05-04 18:33 51.21629 -0.28689 1580 ft 106 kts 141°
2026-05-04 18:34 51.21005 -0.27979 1467 ft 121 kts 141°
2026-05-04 18:34 51.20330 -0.27193 1463 ft 119 kts 140°
2026-05-04 18:34 51.19665 -0.26386 1462 ft 120 kts 139°
2026-05-04 18:34 51.19010 -0.25544 1480 ft 120 kts 137°
2026-05-04 18:35 51.18372 -0.24714 1561 ft 116 kts 137°
2026-05-04 18:35 51.17714 -0.23858 1436 ft 125 kts 136°
2026-05-04 18:35 51.17026 -0.22987 1378 ft 125 kts 140°
2026-05-04 18:35 51.16438 -0.22038 1294 ft 119 kts 100°
2026-05-04 18:36 51.16884 -0.21177 1221 ft 118 kts
2026-05-04 18:36 51.17432 -0.22034 1251 ft 124 kts 276°
2026-05-04 18:36 51.16943 -0.23010 1292 ft 120 kts 183°
2026-05-04 18:36 51.16155 -0.22622 1222 ft 123 kts 155°
2026-05-04 18:37 51.15365 -0.22109 1196 ft 122 kts 155°
2026-05-04 18:37 51.14578 -0.21681 1213 ft 119 kts 159°
2026-05-04 18:37 51.13868 -0.21026 1194 ft 118 kts 141°
2026-05-04 18:37 51.13214 -0.20256 1219 ft 116 kts 140°
2026-05-04 18:38 51.12562 -0.19512 1287 ft 114 kts 141°
2026-05-04 18:38 51.11925 -0.18759 1328 ft 114 kts 138°
2026-05-04 18:38 51.11310 -0.17985 1402 ft 112 kts 140°
2026-05-04 18:38 51.10602 -0.17410 1438 ft 116 kts 153°
2026-05-04 18:39 51.09862 -0.16912 1443 ft 118 kts 155°
2026-05-04 18:39 51.09097 -0.16452 1464 ft 116 kts 158°
2026-05-04 18:39 51.08329 -0.16057 1497 ft 117 kts 161°
2026-05-04 18:39 51.07524 -0.15744 1472 ft 122 kts 163°
2026-05-04 18:40 51.06678 -0.15477 1445 ft 124 kts 169°
2026-05-04 18:40 51.05862 -0.15203 1425 ft 117 kts 165°
2026-05-04 18:40 51.05052 -0.14900 1404 ft 119 kts 163°
2026-05-04 18:40 51.04252 -0.14587 1403 ft 118 kts 163°
2026-05-04 18:41 51.03418 -0.14360 1316 ft 124 kts 174°
2026-05-04 18:41 51.02570 -0.14388 1362 ft 122 kts 179°
2026-05-04 18:41 51.01717 -0.14411 1338 ft 122 kts 178°
2026-05-04 18:41 51.00889 -0.14393 1374 ft 120 kts 179°
2026-05-04 18:42 51.00042 -0.14564 1290 ft 124 kts 187°
2026-05-04 18:42 50.99180 -0.14770 1209 ft 126 kts 188°
2026-05-04 18:42 50.98342 -0.15128 1197 ft 125 kts 200°
2026-05-04 18:42 50.97537 -0.15643 1248 ft 119 kts 198°
2026-05-04 18:43 50.96800 -0.16134 1300 ft 119 kts 211°
2026-05-04 18:43 50.96011 -0.16470 1289 ft 116 kts 181°
2026-05-04 18:43 50.95474 -0.16477 1261 ft 120 kts 177°
2026-05-04 18:43 50.94611 -0.16345 1199 ft 121 kts 168°
2026-05-04 18:44 50.93785 -0.16231 1199 ft 120 kts 179°
2026-05-04 18:44 50.93232 -0.16250 1198 ft 121 kts 179°
2026-05-04 18:44 50.91831 -0.16398 1181 ft 120 kts 182°
2026-05-04 18:44 50.91264 -0.16443 1164 ft 121 kts 179°
2026-05-04 18:45 50.90424 -0.16376 1184 ft 120 kts 171°
2026-05-04 18:45 50.89621 -0.16110 1207 ft 118 kts 166°
2026-05-04 18:45 50.88811 -0.15905 1266 ft 117 kts 174°
2026-05-04 18:45 50.87984 -0.16011 1257 ft 121 kts 192°
2026-05-04 18:46 50.87153 -0.16168 1294 ft 118 kts 180°
2026-05-04 18:46 50.86313 -0.16311 1246 ft 124 kts 186°
2026-05-04 18:46 50.85474 -0.16527 1286 ft 120 kts 187°
2026-05-04 18:46 50.84634 -0.16719 1227 ft 123 kts 187°
2026-05-04 18:47 50.83799 -0.16910 1237 ft 119 kts 186°
2026-05-04 18:47 50.82987 -0.17193 1245 ft 119 kts 197°
2026-05-04 18:47 50.82230 -0.17739 1237 ft 121 kts 210°
2026-05-04 18:47 50.81622 -0.18632 1211 ft 123 kts 250°
2026-05-04 18:48 50.81738 -0.19945 1124 ft 124 kts 294°
2026-05-04 18:48 50.82145 -0.21032 1188 ft 115 kts 334°
2026-05-04 18:48 50.82810 -0.20699 1130 ft 115 kts 66°
2026-05-04 18:48 50.82483 -0.19666 1028 ft 126 kts 165°
2026-05-04 18:49 50.81808 -0.20311 1033 ft 125 kts 255°
2026-05-04 18:49 50.82183 -0.21377 953 ft 123 kts 345°
2026-05-04 18:49 50.82850 -0.20845 914 ft 118 kts 73°
2026-05-04 18:49 50.82676 -0.19673 942 ft 117 kts 128°
2026-05-04 18:50 50.81939 -0.19130 818 ft 125 kts 193°
2026-05-04 18:50 50.81607 -0.20171 904 ft 118 kts 289°
2026-05-04 18:50 50.82244 -0.20643 967 ft 109 kts 23°
2026-05-04 18:50 50.82494 -0.19662 982 ft 110 kts 114°
2026-05-04 18:51 50.81805 -0.19440 978 ft 118 kts 221°
2026-05-04 18:51 50.81773 -0.20605 958 ft 118 kts 306°
2026-05-04 18:51 50.82166 -0.21741 1003 ft 117 kts 299°
2026-05-04 18:51 50.82415 -0.22946 1019 ft 118 kts 280°
2026-05-04 18:52 50.82538 -0.24236 996 ft 116 kts 304°
2026-05-04 18:52 50.83181 -0.24973 1013 ft 112 kts 331°
2026-05-04 18:52 50.83604 -0.25922 1060 ft 115 kts 267°
2026-05-04 18:52 50.83449 -0.27207 996 ft 119 kts 263°
2026-05-04 18:53 50.83097 -0.28302 958 ft 120 kts 195°
2026-05-04 18:53 50.82421 -0.28723 792 ft 129 kts 275°
2026-05-04 18:53 50.83014 -0.29605 927 ft 110 kts 320°
2026-05-04 18:53 50.83553 -0.29723 1052 ft 96 kts 60°
2026-05-04 18:54 50.84018 -0.28852 824 ft 106 kts 22°
2026-05-04 18:54 50.84612 -0.29251 571 ft 96 kts 271°
2026-05-04 18:54 50.84079 -0.29410 172 ft 93 kts 195°
2026-05-04 18:54 50.83490 -0.29773 16 ft 77 kts 202°
2026-05-04 18:55 50.83124 -0.30005 11 ft 31 kts 202°
2026-05-04 18:55 50.83142 -0.29912 10 ft 9 kts 52°
2026-05-04 18:55 50.83193 -0.29872 10 ft 7 kts 20°
2026-05-04 18:56 50.83235 -0.29846 10 ft 6 kts 21°
2026-05-04 18:56 50.83264 -0.29799 9 ft 7 kts 60°
2026-05-04 18:56 50.83243 -0.29740 8 ft 11 kts 165°
2026-05-04 18:56 50.83208 -0.29696 10 ft 0 kts 72°